Location: Peterborough
(44.3091°N, 78.3197°W)
Time: 17:09:55
(UTC-04:00)

Transit 4A - Pass Details

Date: 28 March 2023
Orbit: 864 x 980 km, 66.8° (Epoch: 04 June)

Event Time Altitude Azimuth Distance (km) Brightness Sun altitude
Rises 12:56:14 0° 332° (NNW) 3,535 10.6 48.5°
Reaches altitude 10° 13:00:26 10° 360° (N) 2,620 10.0 48.6°
Maximum altitude 13:03:05 13° 26° (NNE) 2,432 9.9 48.6°
Drops below altitude 10° 13:05:46 10° 52° (NE) 2,653 10.2 48.7°
Sets 13:10:03 0° 80° (E) 3,622 10.9 48.7°
